EW6133 Weather Reports


time (UTC)temp
C
wind
direction
speed
KPH
gust
KPH
rain 1hr
cm
rain 24hr
cm
rain mn
cm
humidity
%
barometer
mb
20260509190006 16 128 1.6 6.4 0.00 0.00 0.00 48 1016.2
20260509185503 16 350 1.6 8.0 0.00 0.00 0.00 48 1016.2
20260509185004 16 123 1.6 8.0 0.00 0.00 0.00 48 1016.1
20260509184503 16 47 1.6 6.4 0.00 0.00 0.00 48 1016.2
20260509184002 16 139 1.6 6.4 0.00 0.00 0.00 48 1016.1
20260509183503 16 196 1.6 6.4 0.00 0.00 0.00 48 1016.0
20260509183246 16 90 1.6 4.8 0.00 0.00 0.00 48 1015.9
20260509182504 17 49 0.0 6.4 0.00 0.00 0.00 48 1015.9
20260509181959 17 330 1.6 6.4 0.00 0.00 0.00 48 1015.9
20260509181454 17 197 1.6 4.8 0.00 0.00 0.00 47 1015.8
20260509180946 17 333 1.6 9.7 0.00 0.00 0.00 47 1015.8
20260509180442 17 147 1.6 9.7 0.00 0.00 0.00 47 1015.8
20260509175933 17 137 1.6 6.4 0.00 0.00 0.00 47 1015.7
20260509175431 17 355 1.6 6.4 0.00 0.00 0.00 48 1015.7
20260509174931 17 81 1.6 8.0 0.00 0.00 0.00 47 1015.7
20260509174432 17 32 1.6 8.0 0.00 0.00 0.00 46 1015.7
20260509173930 18 151 1.6 12.9 0.00 0.00 0.00 46 1015.8
20260509173430 18 137 1.6 12.9 0.00 0.00 0.00 46 1015.7
20260509172930 18 48 1.6 9.7 0.00 0.00 0.00 47 1015.7
20260509172433 18 22 3.2 8.0 0.00 0.00 0.00 46 1015.7
20260509171931 18 143 3.2 11.3 0.00 0.00 0.00 46 1015.7
20260509171711 18 86 1.6 11.3 0.00 0.00 0.00 46 1015.8
20260509171215 18 211 1.6 8.0 0.00 0.00 0.00 47 1015.8
20260509170433 18 30 1.6 9.7 0.00 0.00 0.00 46 1015.9
20260509165933 18 178 1.6 9.7 0.00 0.00 0.00 47 1015.9
20260509165432 18 336 1.6 8.0 0.00 0.00 0.00 47 1015.9
20260509165209 18 197 1.6 4.8 0.00 0.00 0.00 46 1015.8
20260509164714 18 0 1.6 4.8 0.00 0.00 0.00 47 1015.8
20260509163932 18 309 1.6 4.8 0.00 0.00 0.00 47 1015.8
20260509163714 18 324 1.6 8.0 0.00 0.00 0.00 46 1015.8
20260509163211 19 23 1.6 8.0 0.00 0.00 0.00 45 1015.9
20260509162431 19 59 1.6 6.4 0.00 0.00 0.00 45 1015.9
20260509161931 19 232 1.6 6.4 0.00 0.00 0.00 45 1015.9
20260509161435 19 259 1.6 6.4 0.00 0.00 0.00 44 1015.9
20260509161210 20 231 1.6 11.3 0.00 0.00 0.00 44 1015.9
20260509160430 20 91 1.6 11.3 0.00 0.00 0.00 44 1015.9
20260509155930 20 327 1.6 9.7 0.00 0.00 0.00 42 1015.8
20260509155710 20 287 1.6 9.7 0.00 0.00 0.00 42 1015.8
20260509154928 20 212 0.0 6.4 0.00 0.00 0.00 42 1015.8
20260509154452 20 136 1.6 6.4 0.00 0.00 0.00 41 1015.8
20260509154443 20 24 1.6 6.4 0.00 0.00 0.00 42 1015.8
20260509153447 21 63 1.6 6.4 0.00 0.00 0.00 40 1015.7
20260509153439 20 316 1.6 6.4 0.00 0.00 0.00 41 1015.9
20260509152424 21 98 1.6 6.4 0.00 0.00 0.00 41 1015.8
20260509151922 21 81 1.6 6.4 0.00 0.00 0.00 40 1015.8
20260509151423 21 80 1.6 4.8 0.00 0.00 0.00 38 1015.7
20260509150922 21 139 1.6 4.8 0.00 0.00 0.00 39 1015.7
20260509150421 21 109 1.6 6.4 0.00 0.00 0.00 40 1015.7
20260509145921 21 9 1.6 6.4 0.00 0.00 0.00 39 1015.5
20260509145701 21 217 0.0 4.8 0.00 0.00 0.00 39 1015.5
20260509144919 22 331 1.6 12.9 0.00 0.00 0.00 38 1015.4
20260509144418 22 284 1.6 12.9 0.00 0.00 0.00 38 1015.5
20260509143915 22 172 1.6 9.7 0.00 0.00 0.00 39 1015.4
20260509143656 22 63 1.6 4.8 0.00 0.00 0.00 39 1015.4
20260509142915 22 140 1.6 6.4 0.00 0.00 0.00 38 1015.4
20260509142415 22 228 1.6 9.7 0.00 0.00 0.00 39 1015.4
20260509141916 22 5 1.6 9.7 0.00 0.00 0.00 39 1015.4
20260509141414 22 82 1.6 8.0 0.00 0.00 0.00 38 1015.4
20260509140916 22 215 1.6 8.0 0.00 0.00 0.00 39 1015.6
20260509140414 22 295 1.6 6.4 0.00 0.00 0.00 39 1015.7
20260509135912 22 321 1.6 8.0 0.00 0.00 0.00 40 1015.7
20260509135411 22 306 1.6 8.0 0.00 0.00 0.00 40 1015.8
20260509134938 22 286 1.6 6.4 0.00 0.00 0.00 41 1015.8
20260509134929 22 167 1.6 6.4 0.00 0.00 0.00 40 1015.8
20260509133911 21 269 3.2 11.3 0.00 0.00 0.00 41 1016.0
20260509133652 21 238 3.2 11.3 0.00 0.00 0.00 41 1016.0
20260509132910 21 88 3.2 6.4 0.00 0.00 0.00 40 1016.0
20260509132411 21 40 1.6 6.4 0.00 0.00 0.00 39 1016.0
20260509131912 22 46 1.6 6.4 0.00 0.00 0.00 39 1016.0
20260509131412 22 261 1.6 8.0 0.00 0.00 0.00 39 1016.0
20260509130913 22 286 1.6 9.7 0.00 0.00 0.00 41 1016.1
20260509130410 22 277 1.6 11.3 0.00 0.00 0.00 39 1016.1
20260509125911 22 301 1.6 11.3 0.00 0.00 0.00 41 1016.3
20260509125409 22 51 1.6 9.7 0.00 0.00 0.00 42 1016.3
20260509125148 21 345 1.6 8.0 0.00 0.00 0.00 42 1016.3
20260509124408 21 28 1.6 6.4 0.00 0.00 0.00 42 1016.3
20260509123909 21 203 1.6 8.0 0.00 0.00 0.00 43 1016.4
20260509123410 21 135 1.6 8.0 0.00 0.00 0.00 43 1016.5
20260509122904 21 162 1.6 6.4 0.00 0.00 0.00 42 1016.5
20260509122404 21 165 1.6 6.4 0.00 0.00 0.00 43 1016.6
20260509121905 21 255 1.6 6.4 0.00 0.00 0.00 43 1016.5
20260509121403 21 16 1.6 9.7 0.00 0.00 0.00 43 1016.6
20260509120904 21 165 1.6 9.7 0.00 0.00 0.00 43 1016.6
20260509120403 21 296 1.6 6.4 0.00 0.00 0.00 44 1016.6
20260509115902 21 5 1.6 6.4 0.00 0.00 0.00 45 1016.7
20260509115647 20 5 1.6 11.3 0.00 0.00 0.00 45 1016.8
20260509114902 20 143 3.2 11.3 0.00 0.00 0.00 44 1016.9
20260509114403 20 205 3.2 12.9 0.00 0.00 0.00 44 1016.9
20260509113904 20 228 1.6 12.9 0.00 0.00 0.00 45 1017.1
20260509113404 20 40 1.6 6.4 0.00 0.00 0.00 45 1017.1
20260509112903 20 121 1.6 8.0 0.00 0.00 0.00 44 1017.0
20260509112402 20 101 1.6 11.3 0.00 0.00 0.00 43 1017.2
20260509111902 20 9 1.6 11.3 0.00 0.00 0.00 44 1017.3
20260509111403 20 277 1.6 8.0 0.00 0.00 0.00 45 1017.2
20260509111146 20 88 1.6 8.0 0.00 0.00 0.00 45 1017.3
20260509110402 20 252 1.6 8.0 0.00 0.00 0.00 45 1017.3
20260509105906 20 32 1.6 6.4 0.00 0.00 0.00 46 1017.3
20260509105402 20 179 1.6 6.4 0.00 0.00 0.00 46 1017.4
20260509104903 20 144 1.6 8.0 0.00 0.00 0.00 45 1017.5
20260509104402 20 49 1.6 8.0 0.00 0.00 0.00 45 1017.5
20260509103904 20 138 1.6 8.0 0.00 0.00 0.00 46 1017.6
20260509103402 20 28 1.6 9.7 0.00 0.00 0.00 46 1017.6
20260509102903 20 114 1.6 9.7 0.00 0.00 0.00 45 1017.8
20260509102404 20 20 1.6 9.7 0.00 0.00 0.00 46 1017.6
20260509101902 20 69 1.6 9.7 0.00 0.00 0.00 46 1017.7
20260509101403 19 119 1.6 6.4 0.00 0.00 0.00 48 1017.8
20260509100902 19 21 3.2 11.3 0.00 0.00 0.00 48 1017.8
20260509100403 18 114 1.6 11.3 0.00 0.00 0.00 48 1017.8
20260509095901 18 19 1.6 11.3 0.00 0.00 0.00 48 1017.7
20260509095404 18 214 1.6 11.3 0.00 0.00 0.00 48 1017.7
20260509094902 18 78 1.6 4.8 0.00 0.00 0.00 48 1017.7
20260509094404 18 276 1.6 9.7 0.00 0.00 0.00 49 1017.7
20260509093905 18 164 1.6 9.7 0.00 0.00 0.00 48 1017.8
20260509093403 18 258 1.6 4.8 0.00 0.00 0.00 51 1017.8
20260509092901 18 169 3.2 8.0 0.00 0.00 0.00 51 1017.9
20260509092402 18 340 1.6 8.0 0.00 0.00 0.00 50 1017.8
20260509091902 18 252 1.6 9.7 0.00 0.00 0.00 51 1017.8
20260509091403 18 75 1.6 9.7 0.00 0.00 0.00 53 1017.9
20260509090903 18 63 1.6 9.7 0.00 0.00 0.00 53 1017.9
20260509090403 18 84 3.2 9.7 0.00 0.00 0.00 53 1017.9
20260509085903 17 355 1.6 4.8 0.00 0.00 0.00 54 1017.9
20260509085402 17 242 1.6 4.8 0.00 0.00 0.00 57 1017.9
20260509084903 17 148 1.6 6.4 0.00 0.00 0.00 57 1017.9
20260509084403 17 196 1.6 6.4 0.00 0.00 0.00 57 1017.9
20260509084141 17 30 1.6 6.4 0.00 0.00 0.00 58 1017.9
20260509083405 17 355 1.6 8.0 0.00 0.00 0.00 59 1017.9
20260509082904 16 322 1.6 8.0 0.00 0.00 0.00 58 1017.9
20260509082402 16 38 1.6 9.7 0.00 0.00 0.00 59 1017.9
20260509081856 16 86 1.6 9.7 0.00 0.00 0.00 59 1017.9
20260509081349 16 137 1.6 6.4 0.00 0.00 0.00 60 1017.8
20260509080844 16 87 1.6 4.8 0.00 0.00 0.00 61 1017.9
20260509080338 15 51 1.6 6.4 0.00 0.00 0.00 64 1017.8
20260509075837 15 19 1.6 6.4 0.00 0.00 0.00 65 1017.9
20260509075334 15 36 1.6 4.8 0.00 0.00 0.00 68 1017.9
20260509074834 15 53 1.6 4.8 0.00 0.00 0.00 69 1017.9
20260509074611 14 334 1.6 6.4 0.00 0.00 0.00 71 1017.9
20260509074109 14 322 1.6 6.4 0.00 0.00 0.00 72 1017.9
20260509073330 13 346 1.6 4.8 0.00 0.00 0.00 73 1017.8
20260509072831 13 88 0.0 4.8 0.00 0.00 0.00 76 1017.8
20260509072325 13 110 0.0 4.8 0.00 0.00 0.00 77 1017.9
20260509071828 12 117 0.0 3.2 0.00 0.00 0.00 79 1017.9
20260509071329 12 78 0.0 1.6 0.00 0.00 0.00 81 1017.9
20260509070828 12 37 0.0 1.6 0.00 0.00 0.00 82 1017.9
20260509070324 11 37 0.0 1.6 0.00 0.00 0.00 83 1017.9
20260509065825 11 37 0.0 1.6 0.00 0.00 0.00 85 1017.8
20260509065341 10 37 0.0 3.2 0.00 0.00 0.00 88 1017.8
20260509065333 11 37 0.0 3.2 0.00 0.00 0.00 86 1017.8
20260509064323 10 18 0.0 1.6 0.00 0.00 0.00 90 1017.7
20260509063823 9 18 0.0 3.2 0.00 0.00 0.00 91 1017.8
20260509063323 9 18 0.0 3.2 0.00 0.00 0.00 93 1017.9
20260509062822 8 18 0.0 1.6 0.00 0.00 0.00 93 1017.9
20260509062324 8 18 0.0 0.0 0.00 0.00 0.00 94 1017.9
20260509062057 7 18 0.0 0.0 0.00 0.00 0.00 94 1017.9
20260509061318 7 18 0.0 0.0 0.00 0.00 0.00 94 1017.8
20260509060820 7 18 0.0 0.0 0.00 0.00 0.00 94 1017.8
20260509060319 6 18 0.0 0.0 0.00 0.00 0.00 94 1017.8
20260509055817 6 18 0.0 0.0 0.00 0.00 0.00 93 1017.8
20260509055556 6 18 0.0 0.0 0.00 0.00 0.00 93 1017.7
20260509054817 6 18 0.0 0.0 0.00 0.00 0.00 93 1017.7
20260509054334 5 18 0.0 0.0 0.00 0.00 0.00 93 1017.7
20260509054326 5 18 0.0 0.0 0.00 0.00 0.00 93 1017.6
20260509053607 5 18 0.0 0.0 0.00 0.00 0.00 93 1017.8
20260509053603 5 18 0.0 0.0 0.00 0.00 0.00 93 1017.8
20260509052311 5 18 0.0 0.0 0.00 0.00 0.00 93 1017.7
20260509051810 5 18 0.0 0.0 0.00 0.00 0.00 93 1017.7
20260509051310 5 18 0.0 0.0 0.00 0.00 0.00 93 1017.6
20260509050810 5 47 0.0 0.0 0.00 0.00 0.00 93 1017.6
20260509050548 5 47 0.0 0.0 0.00 0.00 0.00 92 1017.6
20260509045810 5 47 0.0 0.0 0.00 0.00 0.00 92 1017.5
20260509045311 5 47 0.0 0.0 0.00 0.00 0.00 92 1017.6
20260509044811 5 47 0.0 0.0 0.00 0.00 0.00 92 1017.6
20260509044310 5 47 0.0 0.0 0.00 0.00 0.00 92 1017.6
20260509043811 5 47 0.0 0.0 0.00 0.00 0.00 92 1017.6
20260509043310 5 47 0.0 0.0 0.00 0.00 0.00 92 1017.5
20260509042813 5 47 0.0 0.0 0.00 0.00 0.00 92 1017.6
20260509042312 5 47 0.0 0.0 0.00 0.00 0.00 92 1017.5
20260509041811 5 47 0.0 0.0 0.00 0.00 0.00 92 1017.6
20260509041310 5 47 0.0 0.0 0.00 0.00 0.00 91 1017.6
20260509040811 5 47 0.0 0.0 0.00 0.00 0.00 91 1017.5
20260509040309 5 47 0.0 0.0 0.00 0.00 0.00 91 1017.6
20260509035809 5 47 0.0 0.0 0.00 0.00 0.00 91 1017.6
20260509035306 5 47 0.0 0.0 0.00 0.00 0.00 91 1017.6
20260509035044 5 47 0.0 0.0 0.00 0.00 0.00 91 1017.6
20260509034305 5 47 0.0 0.0 0.00 0.00 0.00 91 1017.6
20260509033803 5 47 0.0 0.0 0.00 0.00 0.00 91 1017.6
20260509033542 5 47 0.0 0.0 0.00 0.00 0.00 91 1017.5
20260509032803 5 47 0.0 0.0 0.00 0.00 0.00 91 1017.5
20260509032306 5 47 0.0 0.0 0.00 0.00 0.00 91 1017.5
20260509031804 5 47 0.0 0.0 0.00 0.00 0.00 92 1017.5
20260509031544 5 47 0.0 0.0 0.00 0.00 0.00 91 1017.6
20260509030802 5 47 0.0 0.0 0.00 0.00 0.00 91 1017.6
20260509030302 5 47 0.0 0.0 0.00 0.00 0.00 91 1017.6
20260509030041 5 47 0.0 0.0 0.00 0.00 0.00 91 1017.6
20260509025307 6 47 0.0 0.0 0.00 0.00 0.00 91 1017.7
20260509024803 6 47 0.0 0.0 0.00 0.00 0.00 91 1017.8
20260509024304 6 47 0.0 0.0 0.00 0.00 0.00 91 1017.7
20260509023801 6 47 0.0 0.0 0.00 0.00 0.00 91 1017.8
20260509023302 6 47 0.0 0.0 0.00 0.00 0.00 91 1017.8
20260509023042 6 47 0.0 0.0 0.00 0.00 0.00 90 1017.8
20260509022306 6 47 0.0 0.0 0.00 0.00 0.00 90 1017.8
20260509021803 6 47 0.0 0.0 0.00 0.00 0.00 90 1017.8
20260509021542 6 47 0.0 0.0 0.00 0.00 0.00 91 1017.8
20260509020803 6 47 0.0 0.0 0.00 0.00 0.00 90 1017.8
20260509020304 6 47 0.0 0.0 0.00 0.00 0.00 90 1017.8
20260509015805 6 47 0.0 0.0 0.00 0.00 0.00 90 1017.8
20260509015306 6 47 0.0 0.0 0.00 0.00 0.00 90 1017.8
20260509015040 6 47 0.0 0.0 0.00 0.00 0.00 90 1017.7
20260509014539 6 47 0.0 0.0 0.00 0.00 0.00 89 1017.8
20260509013803 6 47 0.0 0.0 0.00 0.00 0.00 89 1017.8
20260509013544 6 47 0.0 0.0 0.00 0.00 0.00 89 1017.8
20260509012802 6 47 0.0 0.0 0.00 0.00 0.00 89 1017.8
20260509012540 7 47 0.0 0.0 0.00 0.00 0.00 90 1017.9
20260509012040 7 47 0.0 0.0 0.00 0.00 0.00 90 1017.8
20260509011541 7 47 0.0 0.0 0.00 0.00 0.00 90 1017.8
20260509010818 7 47 0.0 0.0 0.00 0.00 0.00 90 1017.9
20260509010812 7 47 0.0 0.0 0.00 0.00 0.00 90 1017.8
20260509010037 7 47 0.0 0.0 0.00 0.00 0.00 89 1017.9
20260509005306 7 47 0.0 0.0 0.00 0.00 0.00 89 1017.8
20260509004803 7 47 0.0 0.0 0.00 0.00 0.00 89 1017.8
20260509004305 7 47 0.0 0.0 0.00 0.00 0.00 89 1017.8
20260509003803 7 47 0.0 0.0 0.00 0.00 0.00 88 1017.9
20260509003304 7 47 0.0 0.0 0.00 0.00 0.00 88 1017.9
20260509002803 7 47 0.0 0.0 0.00 0.00 0.00 88 1017.8
20260509002306 7 47 0.0 0.0 0.00 0.00 0.00 88 1017.8
20260509001805 7 47 0.0 0.0 0.00 0.00 0.00 88 1017.8
20260509001303 7 47 0.0 0.0 0.00 0.00 0.00 87 1017.8
20260509000802 7 47 0.0 0.0 0.00 0.00 0.00 87 1017.9
20260509000304 8 47 0.0 0.0 0.00 0.00 0.00 87 1017.9
20260508235802 8 47 0.0 0.0 0.00 0.00 0.00 87 1017.9
20260508235306 8 47 0.0 0.0 0.00 0.00 0.00 87 1017.9
20260508234803 8 47 0.0 0.0 0.00 0.00 0.00 87 1018.0
20260508234303 8 47 0.0 0.0 0.00 0.00 0.00 87 1018.0
20260508233802 8 47 0.0 0.0 0.00 0.00 0.00 86 1018.0
20260508233303 8 47 0.0 0.0 0.00 0.00 0.00 86 1018.0
20260508232803 8 47 0.0 0.0 0.00 0.00 0.00 86 1017.9
20260508232306 8 47 0.0 0.0 0.00 0.00 0.00 86 1018.0
20260508231803 8 47 0.0 0.0 0.00 0.00 0.00 86 1018.0
20260508231303 8 47 0.0 0.0 0.00 0.00 0.00 85 1018.0
20260508230802 8 47 0.0 0.0 0.00 0.00 0.00 85 1018.0
20260508230303 8 47 0.0 0.0 0.00 0.00 0.00 85 1018.0
20260508225804 8 47 0.0 0.0 0.00 0.00 0.00 85 1018.0
20260508225306 8 47 0.0 0.0 0.00 0.00 0.00 84 1017.9
20260508224809 8 47 0.0 0.0 0.00 0.00 0.00 84 1017.9
20260508224803 8 47 0.0 0.0 0.00 0.00 0.00 84 1017.9
20260508223804 9 47 0.0 0.0 0.00 0.00 0.00 83 1017.9
20260508223526 9 47 0.0 0.0 0.00 0.00 0.00 82 1017.9
20260508222801 9 47 0.0 0.0 0.00 0.00 0.00 82 1017.9
20260508222306 9 47 0.0 0.0 0.00 0.00 0.00 82 1017.9
20260508221801 9 47 0.0 0.0 0.00 0.00 0.00 81 1017.9
20260508221255 10 47 0.0 0.0 0.00 0.00 0.00 81 1017.9
20260508220753 10 47 0.0 0.0 0.00 0.00 0.00 81 1017.9
20260508220249 10 47 0.0 0.0 0.00 0.00 0.00 80 1017.9
20260508220029 10 47 0.0 0.0 0.00 0.00 0.00 80 1017.9
20260508215525 10 47 0.0 0.0 0.00 0.00 0.00 80 1017.9
20260508214747 10 47 0.0 0.0 0.00 0.00 0.00 80 1018.0
20260508214245 10 47 0.0 0.0 0.00 0.00 0.00 79 1017.9
20260508213746 10 47 0.0 0.0 0.00 0.00 0.00 78 1018.0
20260508213244 10 47 0.0 0.0 0.00 0.00 0.00 78 1017.9
20260508212745 10 47 0.0 0.0 0.00 0.00 0.00 77 1017.9
20260508212543 11 47 0.0 0.0 0.00 0.00 0.00 76 1017.8
20260508212538 11 47 0.0 0.0 0.00 0.00 0.00 77 1017.8
20260508211244 11 47 0.0 0.0 0.00 0.00 0.00 75 1017.7
20260508210741 11 47 0.0 0.0 0.00 0.00 0.00 75 1017.6
20260508210244 11 47 0.0 0.0 0.00 0.00 0.00 74 1017.6
20260508210016 11 47 0.0 0.0 0.00 0.00 0.00 73 1017.6
20260508205239 11 47 0.0 0.0 0.00 0.00 0.00 73 1017.5
20260508204739 12 47 0.0 1.6 0.00 0.00 0.00 72 1017.5
20260508204242 12 47 0.0 3.2 0.00 0.00 0.00 72 1017.5
20260508203739 12 47 0.0 3.2 0.00 0.00 0.00 72 1017.6
20260508203237 12 98 0.0 3.2 0.00 0.00 0.00 71 1017.5
20260508202740 12 101 0.0 3.2 0.00 0.00 0.00 70 1017.5
20260508202239 12 78 0.0 1.6 0.00 0.00 0.00 70 1017.4
20260508201739 12 78 0.0 1.6 0.00 0.00 0.00 69 1017.3
20260508201237 13 78 0.0 4.8 0.00 0.00 0.00 69 1017.3
20260508201016 13 80 0.0 4.8 0.00 0.00 0.00 68 1017.2
20260508200238 13 306 0.0 3.2 0.00 0.00 0.00 67 1017.2
20260508195740 13 120 0.0 3.2 0.00 0.00 0.00 67 1017.2
20260508195239 13 35 0.0 3.2 0.00 0.00 0.00 66 1017.1
20260508194740 13 62 0.0 3.2 0.00 0.00 0.00 66 1017.1
20260508194516 13 92 0.0 4.8 0.00 0.00 0.00 65 1016.9
20260508193739 14 342 0.0 4.8 0.00 0.00 0.00 65 1016.9
20260508193236 14 84 0.0 3.2 0.00 0.00 0.00 64 1016.9
20260508192735 14 349 0.0 3.2 0.00 0.00 0.00 64 1016.9
20260508192231 14 53 0.0 3.2 0.00 0.00 0.00 64 1016.7
20260508191732 15 0 0.0 3.2 0.00 0.00 0.00 63 1016.7
20260508191231 15 5 0.0 4.8 0.00 0.00 0.00 63 1016.5
20260508191009 15 5 0.0 4.8 0.00 0.00 0.00 62 1016.5
20260508190231 15 57 0.0 4.8 0.00 0.00 0.00 62 1016.5